Temp
-5 -5 -6 -7 -8 -8 -7 -7 -8 -8 -7 -8 -7 -7 -8 -8 -8 -8 -8 -8 -8 -9 -8 -8 -8 -7 -8 -7 -6 -6 -7 -6 -6 -7 -6 -7 -6 -6 -7 -7 -7 -7 -7
-7 -7 -7 -7 -9 -8 -8 -9 -8 -8 -8 -8 -8 -7 -8 -8 -8 -8 -8 -8 -8 -8 -8 -8 -8 -7 -7 -7 -7 -6 -6 -7 -6 -6 -6 -6 -6 -7 -6 -7 -7 -6 -6
-8 -8 -8 -8 -9 -9 -8 -8 -8 -8 -8 -8 -7 -7 -8 -8 -8 -8 -8 -8 -8 -8 -8 -8 -5 -7 -7 -7 -6 -6 -6 -6 -5 -5 -5 -5 -6 -6 -7 -7 -6 -6 -6
-9 -9 -9 -9 -9 -7 -7 -8 -8 -8 -8 -8 -8 -7 -8 -8 -8 -8 -7 -8 -8 -8 -8 -8 -6 -7 -7 -6 -6 -6 -6 -6 -5 -6 -6 -6 -6 -6 -6 -6 -6 -7 -7
-9 -9 -9 -9 -9 -9 -8 -8 -8 -7 -8 -8 -8 -7 -7 -7 -7 -7 -7 -7 -7 -7 -8 -9 -8 -7 -7 -7 -6 -6 -6 -6 -6 -6 -6 -6 -6 -7 -7 -7 -7 -7 -7
-9 -9 -8 -8 -8 -8 -7 -7 -7 -8 -7 -8 -8 -7 -7 -7 -7 -7 -7 -7 -7 -6 -9 -9 -8 -8 -7 -7 -6 -7 -6 -6 -6 -6 -6 -6 -7 -6 -7 -7 -7 -7 -7
-8 -8 -8 -8 -8 -8 -7 -7 -7 -7 -7 -7 -7 -7 -7 -7 -7 -7 -7 -7 -7 -8 -9 -9 -9 -8 -8 -7 -7 -6 -7 -6 -7 -7 -6 -6 -7 -7 -7 -7 -7 -7 -7
-8 -8 -8 -8 -7 -7 -7 -7 -7 -7 -7 -7 -7 -7 -7 -7 -7 -7 -7 -8 -8 -8 -8 -9 -9 -8 -8 -8 -7 -7 -7 -7 -7 -7 -7 -7 -7 -7 -8 -7 -7 -8 -8
-8 -8 -8 -8 -8 -8 -8 -8 -7 -7 -7 -7 -7 -7 -7 -7 -7 -7 -7 -8 -8 -8 -7 -7 -8 -9 -8 -8 -8 -8 -7 -7 -7 -7 -8 -8 -8 -8 -8 -8 -8 -8 -8
-8 -8 -8 -7 -7 -7 -7 -7 -7 -7 -7 -7 -7 -7 -7 -7 -7 -7 -7 -8 -9 -9 -9 -9 -8 -8 -9 -9 -9 -8 -8 -8 -8 -8 -9 -8 -8 -8 -9 -9 -9 -9 -9
-8 -7 -7 -7 -7 -7 -7 -7 -6 -7 -6 -7 -7 -7 -7 -8 -8 -8 -7 -8 -9 -9 -9 -10 -9 -10 -9 -9 -9 -9 -9 -9 -9 -9 -10 -9 -9 -9 -9 -9 -9 -9 -9
-8 -7 -7 -6 -6 -7 -6 -6 -6 -6 -6 -6 -7 -8 -9 -9 -8 -8 -8 -8 -9 -10 -10 -10 -10 -10 -9 -9 -9 -9 -9 -9 -9 -9 -9 -9 -9 -9 -9 -9 -9 -9 -9
-8 -7 -7 -7 -7 -7 -7 -6 -6 -6 -7 -7 -8 -9 -9 -10 -10 -9 -9 -9 -9 -10 -11 -11 -11 -10 -9 -9 -9 -9 -10 -9 -9 -9 -9 -10 -9 -9 -9 -9 -9 -9 -9
-8 -8 -7 -7 -7 -7 -6 -6 -7 -7 -6 -9 -9 -9 -11 -11 -10 -10 -10 -10 -11 -12 -10 -10 -10 -11 -10 -10 -10 -10 -10 -10 -10 -10 -10 -10 -10 -10 -9 -9 -9 -10 -10
-9 -9 -8 -8 -7 -7 -7 -7 -7 -7 -9 -10 -10 -10 -11 -11 -11 -11 -10 -11 -10 -11 -10 -10 -11 -12 -11 -10 -10 -10 -10 -10 -10 -10 -10 -9 -10 -9 -10 -10 -10 -10 -10
-9 -9 -9 -9 -8 -8 -9 -8 -8 -10 -10 -10 -10 -11 -11 -11 -11 -11 -11 -10 -10 -10 -11 -10 -11 -13 -13 -12 -12 -11 -10 -10 -10 -10 -10 -10 -10 -10 -10 -10 -11 -11 -11
-10 -9 -9 -9 -10 -10 -10 -10 -10 -10 -10 -11 -12 -12 -11 -11 -11 -11 -11 -11 -10 -10 -10 -11 -13 -13 -12 -12 -11 -11 -10 -10 -10 -10 -10 -10 -10 -11 -11 -12 -12 -12 -12
-11 -10 -10 -10 -10 -10 -10 -11 -10 -11 -11 -12 -13 -12 -12 -12 -11 -11 -11 -11 -11 -11 -12 -11 -12 -12 -12 -12 -11 -11 -11 -10 -10 -10 -11 -11 -12 -12 -12 -12 -12 -12 -12
-11 -11 -11 -11 -12 -11 -11 -11 -11 -12 -12 -12 -12 -13 -13 -12 -11 -11 -11 -11 -11 -11 -12 -12 -13 -13 -12 -12 -11 -11 -11 -11 -11 -12 -12 -12 -13 -13 -13 -13 -13 -13 -13
-12 -12 -13 -13 -13 -13 -12 -12 -13 -13 -12 -13 -13 -13 -13 -13 -12 -11 -11 -11 -12 -13 -14 -14 -13 -12 -12 -12 -11 -11 -12 -12 -12 -13 -13 -13 -13 -13 -13 -13 -13 -13 -13
-13 -14 -14 -14 -14 -14 -14 -14 -14 -14 -13 -13 -14 -14 -13 -13 -12 -13 -13 -13 -14 -15 -15 -14 -13 -12 -12 -12 -12 -12 -13 -13 -13 -14 -14 -14 -14 -14 -14 -14 -14 -14 -14
-14 -15 -15 -15 -15 -15 -15 -15 -16 -16 -15 -15 -15 -15 -16 -16 -16 -16 -16 -16 -15 -14 -14 -13 -13 -13 -14 -14 -14 -14 -14 -14 -14 -14 -14 -14 -14 -15 -15 -14 -14 -14 -14
-15 -15 -16 -16 -16 -16 -16 -16 -17 -17 -17 -17 -16 -16 -16 -16 -15 -15 -15 -14 -14 -14 -14 -14 -14 -14 -14 -14 -14 -14 -14 -14 -14 -14 -15 -15 -15 -15 -15 -15 -14 -14 -14
-16 -16 -16 -16 -16 -16 -16 -16 -16 -17 -16 -16 -16 -16 -16 -15 -15 -15 -15 -15 -15 -15 -15 -15 -15 -15 -15 -15 -15 -15 -15 -15 -15 -15 -15 -15 -15 -15 -14 -14 -14 -14 -14
-16 -16 -17 -17 -17 -16 -17 -16 -16 -16 -16 -16 -16 -16 -16 -16 -16 -15 -15 -15 -15 -15 -15 -15 -15 -16 -15 -16 -16 -15 -15 -15 -15 -15 -15 -15 -15 -15 -15 -15 -15 -15 -15
-16 -16 -16 -16 -17 -16 -16 -16 -16 -16 -16 -16 -16 -16 -16 -16 -16 -16 -16 -16 -16 -16 -16 -16 -16 -16 -16 -16 -16 -16 -16 -16 -16 -15 -16 -16 -16 -16 -15 -16 -15 -15 -16
Height
5903 5886 5896 5897 5898 5897 5894 5892 5891 5891 5891 5889 5885 5885 5882 5880 5877 5874 5871 5868 5867 5864 5861 5859 5857 5857 5860 5861 5859 5857 5855 5853 5856 5858 5849 5856 5860 5853 5859 5861 5860 5863 5863
5897 5895 5893 5891 5891 5891 5890 5885 5884 5883 5881 5879 5876 5873 5873 5871 5868 5866 5864 5860 5857 5853 5850 5847 5844 5846 5849 5850 5848 5846 5844 5842 5844 5847 5843 5845 5848 5847 5851 5852 5853 5855 5857
5891 5888 5886 5884 5880 5880 5878 5876 5875 5873 5869 5868 5866 5864 5862 5860 5860 5857 5853 5851 5847 5844 5839 5834 5832 5836 5840 5841 5840 5834 5832 5832 5833 5837 5838 5840 5839 5839 5840 5843 5845 5845 5846
5881 5879 5876 5873 5871 5868 5866 5865 5865 5862 5859 5857 5856 5855 5852 5850 5850 5847 5845 5841 5837 5834 5830 5826 5824 5828 5830 5833 5830 5827 5826 5827 5824 5828 5831 5834 5831 5832 5834 5836 5836 5837 5837
5871 5868 5865 5862 5859 5857 5855 5854 5853 5852 5849 5846 5847 5845 5843 5841 5840 5839 5834 5831 5827 5822 5820 5818 5818 5820 5822 5822 5822 5822 5821 5818 5818 5820 5820 5821 5821 5823 5824 5824 5826 5827 5827
5858 5855 5852 5849 5847 5846 5844 5843 5842 5840 5838 5836 5837 5837 5836 5833 5832 5829 5826 5822 5816 5808 5804 5811 5812 5813 5813 5815 5816 5816 5814 5813 5812 5810 5812 5813 5812 5813 5814 5814 5816 5818 5819
5845 5842 5840 5837 5836 5834 5833 5832 5831 5829 5828 5827 5827 5826 5825 5825 5823 5821 5819 5815 5810 5801 5801 5805 5806 5808 5806 5808 5809 5808 5806 5805 5806 5806 5807 5806 5807 5807 5806 5808 5808 5808 5808
5831 5828 5827 5824 5823 5822 5820 5819 5817 5818 5817 5816 5815 5815 5815 5816 5813 5812 5810 5808 5806 5804 5803 5803 5803 5804 5804 5803 5803 5802 5802 5800 5800 5800 5799 5798 5799 5799 5799 5800 5800 5801 5799
5820 5818 5816 5813 5811 5809 5807 5805 5804 5801 5803 5802 5801 5801 5800 5802 5802 5802 5801 5800 5800 5799 5798 5797 5798 5799 5799 5799 5799 5797 5795 5794 5794 5793 5793 5792 5792 5793 5793 5791 5791 5791 5791
5809 5807 5805 5802 5799 5796 5794 5791 5789 5788 5787 5787 5785 5786 5786 5788 5788 5789 5790 5790 5791 5790 5791 5791 5790 5792 5793 5793 5792 5791 5789 5788 5787 5786 5787 5787 5786 5785 5784 5784 5784 5782 5782
5795 5792 5790 5787 5784 5780 5777 5776 5773 5772 5770 5769 5768 5769 5770 5772 5772 5774 5776 5778 5778 5779 5780 5781 5783 5783 5784 5784 5784 5783 5782 5780 5780 5780 5780 5778 5779 5778 5777 5776 5774 5774 5772
5781 5778 5774 5771 5768 5765 5762 5759 5756 5754 5752 5749 5747 5749 5751 5753 5755 5757 5760 5763 5765 5765 5768 5772 5771 5774 5775 5776 5776 5776 5774 5774 5773 5773 5772 5772 5771 5772 5771 5769 5768 5765 5765
5770 5765 5761 5757 5753 5750 5748 5745 5739 5736 5733 5731 5729 5727 5730 5736 5738 5741 5743 5748 5751 5753 5759 5759 5760 5762 5765 5766 5767 5768 5768 5767 5766 5766 5764 5763 5764 5763 5763 5761 5760 5758 5755
5757 5752 5747 5743 5739 5736 5732 5727 5722 5720 5716 5713 5712 5711 5713 5718 5722 5725 5729 5733 5736 5742 5744 5748 5750 5752 5756 5757 5758 5759 5759 5759 5758 5757 5756 5754 5754 5754 5752 5752 5750 5749 5747
5745 5740 5736 5731 5726 5722 5717 5712 5710 5705 5700 5698 5697 5696 5697 5702 5706 5711 5714 5719 5722 5723 5730 5735 5736 5739 5745 5747 5749 5749 5750 5749 5747 5747 5746 5745 5744 5743 5741 5739 5737 5735 5731
5735 5730 5725 5719 5714 5710 5706 5703 5699 5694 5692 5688 5687 5686 5687 5691 5695 5697 5700 5702 5712 5718 5721 5721 5726 5729 5733 5736 5740 5740 5740 5739 5738 5737 5736 5736 5734 5731 5728 5726 5724 5722 5720
5725 5720 5715 5710 5706 5701 5696 5694 5691 5687 5683 5680 5677 5677 5680 5683 5682 5690 5693 5696 5698 5700 5707 5711 5716 5719 5724 5728 5732 5731 5731 5729 5728 5727 5726 5724 5722 5720 5718 5716 5714 5711 5708
5714 5710 5706 5701 5697 5692 5688 5684 5681 5678 5676 5673 5672 5671 5674 5677 5681 5683 5686 5686 5690 5695 5701 5704 5707 5712 5717 5720 5722 5722 5721 5720 5719 5716 5715 5713 5711 5709 5708 5706 5704 5701 5697
5705 5699 5695 5691 5686 5684 5680 5675 5672 5670 5668 5666 5665 5665 5666 5669 5672 5676 5682 5685 5685 5690 5695 5695 5699 5705 5709 5712 5712 5711 5710 5709 5708 5706 5704 5703 5701 5699 5698 5696 5693 5690 5686
5697 5693 5690 5684 5679 5674 5672 5669 5667 5665 5663 5661 5661 5662 5662 5665 5668 5670 5674 5676 5678 5682 5688 5692 5696 5699 5699 5701 5702 5701 5700 5699 5697 5696 5694 5693 5691 5689 5687 5685 5683 5680 5678
5691 5688 5684 5680 5676 5672 5667 5665 5663 5661 5659 5659 5660 5661 5662 5663 5664 5665 5668 5671 5676 5680 5684 5688 5690 5691 5691 5691 5691 5691 5690 5689 5688 5686 5684 5682 5681 5680 5678 5675 5673 5671 5668
5685 5683 5680 5678 5675 5671 5668 5664 5661 5659 5657 5656 5657 5658 5659 5661 5663 5665 5669 5673 5677 5680 5681 5681 5682 5682 5682 5682 5682 5682 5680 5680 5678 5675 5673 5672 5671 5668 5666 5664 5661 5659 5657
5680 5678 5676 5675 5674 5672 5670 5667 5665 5663 5662 5662 5662 5664 5665 5666 5667 5668 5670 5672 5674 5675 5675 5675 5675 5675 5674 5673 5672 5672 5671 5670 5668 5667 5665 5662 5660 5658 5654 5652 5650 5648 5646
5677 5676 5674 5673 5672 5671 5670 5668 5667 5665 5665 5665 5665 5665 5665 5666 5666 5667 5668 5668 5669 5670 5670 5670 5669 5668 5666 5665 5665 5664 5662 5660 5659 5657 5655 5652 5648 5647 5644 5642 5640 5636 5634
5673 5674 5673 5672 5672 5670 5669 5668 5667 5667 5666 5666 5667 5666 5666 5666 5665 5665 5665 5664 5664 5664 5664 5663 5661 5660 5660 5658 5656 5654 5654 5652 5650 5647 5644 5642 5639 5637 5634 5631 5629 5626 5623
5671 5672 5672 5671 5671 5670 5670 5669 5668 5667 5667 5667 5667 5666 5665 5664 5663 5662 5662 5661 5661 5660 5659 5657 5656 5653 5651 5651 5649 5647 5646 5644 5642 5639 5635 5632 5630 5628 5624 5622 5619 5616 5612
Wind_Speed
42 30 37 44 31 32 35 26 26 32 28 31 32 27 31 33 34 35 37 37 35 38 38 39 41 40 37 37 38 42 41 38 39 41 46 41 36 31 28 27 25 27 24
39 43 47 41 39 28 33 27 34 37 36 35 33 28 32 37 38 35 35 38 41 43 41 46 44 40 38 37 38 36 40 41 36 38 44 41 39 41 32 33 27 33 28
43 46 45 47 48 43 38 36 39 40 39 34 26 31 35 41 37 35 36 36 41 43 42 49 39 40 33 34 34 36 35 35 35 37 41 40 45 43 42 35 35 32 31
42 44 47 47 46 44 41 43 42 42 40 33 28 32 37 40 37 33 35 41 44 46 44 46 35 34 30 32 30 31 27 28 30 31 30 37 30 35 42 42 38 34 33
46 48 48 47 47 44 40 40 41 42 43 39 32 32 37 39 37 36 40 43 43 49 45 36 27 30 29 27 33 34 30 23 26 23 22 29 28 30 31 37 42 37 37
44 44 44 46 46 42 41 40 41 40 41 43 38 36 33 36 34 38 39 43 42 48 36 30 26 29 26 28 27 28 20 20 21 16 24 23 23 30 28 29 34 33 34
44 45 45 43 42 43 39 38 37 37 39 41 40 39 38 38 39 39 39 35 32 21 18 23 25 30 27 28 27 29 24 24 25 24 26 27 25 24 25 31 35 34 33
47 46 44 44 42 40 42 42 44 44 44 45 47 47 46 44 43 41 40 29 21 26 30 27 30 31 30 28 30 30 29 27 27 26 23 21 23 20 18 23 28 27 32
44 42 42 45 47 49 50 51 50 51 48 49 50 50 50 47 47 43 40 37 30 30 32 31 39 36 34 31 32 31 30 29 29 27 25 23 23 22 20 19 20 19 21
41 41 43 44 47 48 47 50 51 51 50 49 51 50 50 47 49 47 43 43 41 41 37 39 40 43 38 35 35 36 33 30 29 26 25 26 24 23 22 21 22 22 25
42 42 44 44 45 46 47 47 50 49 51 53 54 52 51 48 48 49 48 45 44 49 46 43 44 40 44 39 37 36 33 30 27 27 24 23 24 23 22 23 25 26 29
43 43 43 44 44 44 45 48 49 50 54 58 57 56 54 50 49 50 51 48 48 50 51 50 51 53 48 41 39 38 33 29 27 25 24 23 26 25 24 27 28 29 29
43 44 44 43 42 44 46 46 47 49 50 54 50 55 56 48 48 48 53 50 48 47 50 55 55 52 47 40 41 38 32 29 27 25 24 24 26 29 28 26 28 31 34
43 44 44 44 42 45 44 42 44 44 46 41 47 54 49 46 48 48 51 50 46 49 50 52 51 42 39 38 40 37 32 29 26 26 27 26 25 25 26 30 31 35 38
44 43 43 42 43 42 41 37 36 40 41 40 44 44 41 43 47 47 49 47 44 52 53 55 51 40 35 36 37 34 31 29 27 27 27 27 28 29 30 33 36 38 37
41 41 40 39 40 38 31 30 32 31 38 32 34 33 38 41 43 48 53 39 51 62 56 53 46 34 32 34 37 33 29 28 28 27 28 29 30 33 34 35 36 36 36
39 39 38 37 36 31 29 23 22 25 24 32 29 40 35 37 37 45 56 62 62 59 52 32 30 29 28 29 31 29 28 27 26 27 29 31 32 33 35 36 36 35 34
39 38 37 36 34 31 25 29 34 33 25 20 25 30 24 30 40 42 32 40 37 32 26 28 30 25 25 26 29 28 27 26 28 29 32 33 32 33 34 32 33 36 38
37 37 36 36 34 28 24 25 25 23 22 24 28 27 31 28 26 32 37 37 34 29 28 18 15 20 25 28 27 27 28 29 31 32 33 32 32 30 30 32 35 35 34
30 29 29 29 30 30 22 23 19 19 19 19 24 28 28 28 34 40 44 31 22 18 11 13 18 21 22 24 26 28 30 31 31 31 29 29 29 29 31 33 33 33 32
28 28 26 24 23 19 15 9 11 17 16 17 20 24 28 30 29 21 17 12 8 7 10 15 20 25 26 27 29 31 32 31 29 29 29 29 30 31 33 34 34 33 33
24 22 21 18 16 12 11 7 10 14 14 15 15 16 16 14 12 9 5 0 8 14 17 19 21 23 25 25 26 28 28 29 28 29 30 31 32 33 34 33 33 34 35
19 18 16 11 6 7 7 9 10 9 7 5 4 3 4 5 6 7 9 11 13 15 16 18 20 22 22 23 23 24 25 26 27 30 31 33 33 34 33 33 35 35 37
19 15 9 7 9 9 8 6 6 2 2 3 3 3 3 3 4 6 8 9 11 14 15 18 19 20 21 22 24 24 25 27 29 30 31 31 31 32 32 33 35 35 35
13 8 7 4 8 10 7 5 4 3 2 1 2 2 3 5 8 9 10 11 11 13 14 16 17 19 20 20 21 23 24 26 26 27 28 29 28 29 31 33 34 36 36
6 7 6 8 10 9 8 6 4 3 3 3 3 4 6 7 8 9 9 10 12 12 13 15 17 20 20 21 21 23 25 26 27 28 28 27 28 30 31 31 33 34 35
Wind_Direction
291 284 287 285 293 308 303 265 297 299 292 290 296 295 290 289 287 290 293 294 286 290 301 297 274 271 273 278 284 280 283 267 260 258 266 263 256 253 255 261 264 270 267
279 282 282 287 303 296 291 288 286 287 284 283 289 290 288 286 288 294 300 298 291 299 299 297 271 261 267 276 286 282 275 274 261 253 255 258 263 266 265 262 264 264 265
275 276 280 285 291 292 289 291 287 284 284 282 278 281 283 287 291 295 295 294 297 297 304 304 270 262 264 277 285 286 278 258 253 254 252 258 261 262 265 262 261 265 268
275 275 276 280 280 281 283 281 280 279 279 280 275 277 281 283 289 286 293 295 295 298 299 294 257 257 267 275 284 287 274 260 266 258 259 268 270 275 263 262 264 266 269
269 274 277 279 278 277 275 277 279 275 274 280 275 276 279 277 280 283 292 299 300 299 287 283 256 260 269 283 280 272 278 262 256 260 257 264 263 262 267 266 266 265 268
278 278 277 277 277 275 276 276 274 272 270 274 272 270 276 276 277 284 295 299 308 297 264 250 257 270 276 275 274 263 260 259 256 244 254 260 263 260 261 256 258 263 272
282 280 278 275 273 274 276 276 276 272 271 272 271 268 272 274 276 281 288 298 308 293 241 249 264 275 280 279 276 270 261 255 250 255 256 258 260 274 268 257 266 259 273
284 282 282 283 281 277 276 276 276 273 271 270 272 273 273 275 276 279 283 283 289 285 290 283 273 276 279 274 269 262 260 258 258 260 259 257 256 268 274 271 272 275 272
281 280 280 280 280 279 279 277 275 274 272 271 271 273 274 273 274 273 274 272 258 263 277 284 275 275 276 276 268 262 257 254 253 254 258 259 261 267 272 272 275 280 284
277 278 280 281 279 276 273 273 274 274 273 271 270 270 269 268 267 267 264 265 254 255 264 262 267 268 273 276 275 268 259 256 253 252 254 256 258 262 267 275 282 289 291
276 279 283 285 282 279 278 276 277 277 275 273 271 267 265 266 262 261 258 257 258 249 256 258 258 262 269 273 277 267 260 258 256 254 257 264 270 278 286 290 292 294 293
281 286 291 291 286 282 282 283 283 281 278 276 271 268 263 261 256 255 254 251 253 247 249 254 256 261 262 266 275 271 263 262 263 263 269 276 280 283 291 294 294 293 292
287 291 293 292 288 285 285 284 283 282 281 274 267 262 260 253 251 252 252 247 248 247 249 254 257 257 258 261 269 268 264 264 267 272 276 280 288 292 293 291 292 286 286
294 295 296 294 291 291 289 290 287 285 283 263 259 261 254 246 247 245 246 243 241 247 243 252 254 251 256 259 267 267 265 266 270 278 285 290 286 284 286 287 284 283 282
297 299 299 297 296 296 299 300 296 290 274 255 262 260 244 240 244 244 242 245 241 228 241 244 240 238 252 259 265 264 266 272 278 282 284 285 285 286 286 286 287 288 289
298 298 298 301 304 304 298 298 306 277 275 269 274 254 250 248 248 245 245 228 238 242 239 227 235 233 243 251 262 264 267 270 274 276 281 283 284 284 285 287 288 287 287
298 298 299 301 305 308 298 298 300 291 291 277 259 251 259 248 256 242 248 251 236 216 220 213 221 230 241 254 263 266 268 270 270 274 278 278 281 283 284 285 285 285 288
300 300 302 303 305 306 309 292 290 297 290 286 259 257 259 249 253 255 241 213 205 202 214 230 230 231 247 262 264 262 264 269 272 274 274 276 278 281 284 285 285 289 292
306 309 309 307 310 314 314 297 294 287 284 271 262 260 277 272 260 255 223 223 214 215 228 219 236 249 253 254 254 260 265 268 269 272 276 277 278 278 281 286 289 291 289
307 307 308 311 318 318 315 291 276 275 277 259 251 243 245 249 245 229 225 212 206 208 222 240 242 244 248 255 260 265 268 269 270 273 274 275 276 279 286 288 288 287 287
304 308 310 311 318 319 318 281 267 268 258 240 231 230 227 217 205 189 182 172 177 199 218 235 242 251 255 260 265 268 269 269 268 268 275 278 281 283 286 286 284 287 287
307 308 307 307 316 337 356 46 77 79 100 102 88 74 70 65 62 62 67 231 246 244 249 253 257 262 268 271 274 273 271 271 272 274 276 277 278 281 285 283 284 285 288
297 299 296 302 334 329 341 356 14 35 46 57 84 136 163 173 191 204 219 231 242 248 255 262 265 268 269 270 272 274 273 274 275 276 278 281 283 283 281 281 285 288 289
284 289 272 283 296 282 283 273 276 253 201 198 184 170 185 217 240 247 251 258 261 264 266 267 268 272 277 280 280 281 282 284 284 285 285 286 287 285 285 286 289 292 292
272 238 259 248 286 276 271 266 249 225 229 269 286 279 279 274 270 270 272 278 279 280 282 286 290 290 287 287 290 289 290 288 288 286 288 287 288 288 289 290 292 293 293
221 218 235 259 257 259 258 255 251 242 236 240 269 304 303 289 286 286 287 287 280 279 285 290 295 294 293 294 292 293 291 293 294 294 294 294 294 291 291 291 292 291 294